This is the latest recevied weather packets stored in our database for station/object KP4CRN. If no packets are shown the sender has not sent any weather packets the latest 10 day(s).
| Time | Temp. | Humidity | Pressure | Rain* | Wind** | Luminosity | Snow |
|---|---|---|---|---|---|---|---|
| 1777898525 | 28.89° C | 81% | 1017.5 hPa | 0 mm | - | 420 W/m² | - |
| 1777898223 | 28.33° C | 82% | 1017.4 hPa | 0 mm | - | 387 W/m² | - |
| 1777897920 | 28.33° C | 83% | 1017.4 hPa | 0 mm | - | 351 W/m² | - |
| 1777897616 | 28.33° C | 83% | 1017.6 hPa | 0 mm | - | 340 W/m² | - |
| 1777897311 | 27.78° C | 83% | 1017.4 hPa | 0 mm | - | 341 W/m² | - |
| 1777897008 | 27.78° C | 83% | 1017.5 hPa | 0 mm | - | 322 W/m² | - |
| 1777896705 | 27.78° C | 84% | 1017.7 hPa | 0 mm | - | 329 W/m² | - |
| 1777896401 | 27.78° C | 85% | 1017.7 hPa | 0 mm | - | 214 W/m² | - |
| 1777896099 | 27.78° C | 85% | 1017.7 hPa | 0 mm | - | 281 W/m² | - |
| 1777895797 | 27.78° C | 84% | 1017.6 hPa | 0 mm | - | 261 W/m² | - |
| 1777895494 | 27.22° C | 85% | 1017.7 hPa | 0 mm | - | 243 W/m² | - |
| 1777895192 | 27.78° C | 84% | 1017.6 hPa | 0 mm | - | 234 W/m² | - |
| 1777894889 | 27.22° C | 85% | 1017.6 hPa | 0 mm | - | 211 W/m² | - |
| 1777894586 | 27.22° C | 85% | 1017.6 hPa | 0 mm | - | 199 W/m² | - |
| 1777894284 | 26.67° C | 86% | 1017.3 hPa | 0 mm | - | 197 W/m² | - |
| 1777893980 | 26.67° C | 87% | 1017.4 hPa | 0 mm | - | 79 W/m² | - |
| 1777893677 | 26.67° C | 86% | 1017.3 hPa | 0 mm | - | 155 W/m² | - |
| 1777893373 | 26.67° C | 88% | 1017.4 hPa | 0 mm | - | 143 W/m² | - |
| 1777893069 | 26.67° C | 88% | 1017.3 hPa | 0 mm | - | 128 W/m² | - |
| 1777892767 | 26.11° C | 88% | 1017.2 hPa | 0 mm | - | 117 W/m² | - |
| 1777892463 | 26.11° C | 89% | 1017.4 hPa | 0 mm | - | 109 W/m² | - |
| 1777892158 | 26.11° C | 89% | 1017.3 hPa | 0 mm | - | 96 W/m² | - |
| 1777891855 | 26.11° C | 89% | 1017.3 hPa | 0 mm | - | 85 W/m² | - |
| 1777891552 | 25.56° C | 90% | 1017.4 hPa | 0 mm | - | 74 W/m² | - |
| 1777891249 | 25.56° C | 91% | 1017.2 hPa | 0 mm | - | 61 W/m² | - |
* Rain latest hour (hover to see other rain measurements)
** Current wind speed in m/s (hover to see current wind gust speed)